When you browse on this site, cookies collect data to enhance your experience and personalize the content and advertising you see.
Visit our Privacy Policy to learn more. By continuing to use the site, you agree to this use of cookies and data.
  • In Spain
  • List of Countries
  • For 7 days
  • Water Temperature
  • Weather Map
  • Weather Widgets
  • user-avatar
    Login

    Hourly Weather Lleida

    Today, 8 April, Wednesday

    Time Temperature Precipitation Wind Pressure Humidity
    00:00 +11°C° 0 mm 1 mps 753 mmHg 72%
    01:00 +11°C° 0 mm 1 mps 753 mmHg 71%
    02:00 +11°C° 0 mm 1 mps 753 mmHg 70%
    03:00 +11°C° 0 mm 1 mps 753 mmHg 69%
    04:00 +11°C° 0 mm 1 mps 753 mmHg 70%
    05:00 +11°C° 0 mm 1 mps 752 mmHg 71%
    06:00 +11°C° 0 mm 1 mps 753 mmHg 73%
    07:00 +13°C° 0 mm 1 mps 752 mmHg 67%
    08:00 +14°C° 0 mm 1 mps 752 mmHg 61%
    09:00 +16°C° 0 mm 1 mps 752 mmHg 56%
    10:00 +18°C° 0 mm 1 mps 752 mmHg 54%
    11:00 +19°C° 0 mm 1 mps 752 mmHg 52%
    12:00 +20°C° 0 mm 2 mps 752 mmHg 50%
    13:00 +20°C° 0 mm 2 mps 751 mmHg 50%
    14:00 +21°C° 0 mm 2 mps 751 mmHg 50%
    15:00 +21°C° 0 mm 2 mps 750 mmHg 51%
    16:00 +20°C° 0 mm 3 mps 751 mmHg 55%
    17:00 +18°C° 0 mm 3 mps 751 mmHg 60%
    18:00 +17°C° 0 mm 3 mps 751 mmHg 65%
    19:00 +14°C° 0 mm 3 mps 751 mmHg 65%
    20:00 +13°C° 0 mm 3 mps 751 mmHg 65%
    21:00 +13°C° 0 mm 2 mps 752 mmHg 66%
    22:00 +12°C° 0 mm 2 mps 751 mmHg 66%
    23:00 +12°C° 0 mm 2 mps 751 mmHg 67%

    Tomorrow, 9 April, Thursday

    Time Temperature Precipitation Wind Pressure Humidity
    00:00 +12°C° 0 mm 2 mps 751 mmHg 68%
    01:00 +10°C° 0 mm 2 mps 751 mmHg 69%
    02:00 +11°C° 0 mm 1 mps 751 mmHg 69%
    03:00 +11°C° 0 mm 1 mps 750 mmHg 69%
    04:00 +11°C° 0 mm 1 mps 750 mmHg 70%
    05:00 +11°C° 0 mm 1 mps 750 mmHg 71%
    06:00 +11°C° 0 mm 1 mps 751 mmHg 71%
    07:00 +13°C° 0 mm 1 mps 751 mmHg 65%
    08:00 +15°C° 0 mm 1 mps 751 mmHg 58%
    09:00 +17°C° 0 mm 2 mps 751 mmHg 52%
    10:00 +18°C° 0 mm 2 mps 751 mmHg 50%
    11:00 +20°C° 0 mm 2 mps 750 mmHg 48%
    12:00 +21°C° 0 mm 3 mps 750 mmHg 46%
    13:00 +21°C° 0 mm 3 mps 750 mmHg 47%
    14:00 +21°C° 0 mm 4 mps 749 mmHg 47%
    15:00 +21°C° 0 mm 4 mps 749 mmHg 48%
    16:00 +20°C° 0 mm 4 mps 749 mmHg 53%
    17:00 +18°C° 0 mm 4 mps 749 mmHg 58%
    18:00 +17°C° 0 mm 4 mps 749 mmHg 63%
    19:00 +14°C° 0 mm 3 mps 750 mmHg 65%
    20:00 +13°C° 0 mm 3 mps 750 mmHg 67%
    21:00 +13°C° 0 mm 2 mps 751 mmHg 69%
    22:00 +13°C° 0 mm 2 mps 751 mmHg 69%
    23:00 +12°C° 0 mm 2 mps 751 mmHg 70%

    Day after tomorrow, 10 April, Friday

    Time Temperature Precipitation Wind Pressure Humidity
    00:00 +12°C° 0 mm 2 mps 751 mmHg 70%
    01:00 +12°C° 0 mm 2 mps 750 mmHg 71%
    02:00 +10°C° 0 mm 2 mps 750 mmHg 72%
    03:00 +10°C° 0 mm 2 mps 750 mmHg 72%
    04:00 +10°C° 0 mm 2 mps 750 mmHg 74%
    05:00 +10°C° 0 mm 2 mps 750 mmHg 75%
    06:00 +10°C° 0 mm 2 mps 750 mmHg 76%
    07:00 +13°C° 0 mm 2 mps 751 mmHg 69%
    08:00 +15°C° 0 mm 2 mps 751 mmHg 62%
    09:00 +18°C° 0 mm 2 mps 751 mmHg 55%
    10:00 +19°C° 0 mm 3 mps 751 mmHg 52%
    11:00 +20°C° 0 mm 3 mps 751 mmHg 49%
    12:00 +21°C° 0 mm 3 mps 750 mmHg 46%
    13:00 +21°C° 0 mm 4 mps 750 mmHg 46%
    14:00 +21°C° 0 mm 4 mps 750 mmHg 47%
    15:00 +21°C° 0 mm 4 mps 749 mmHg 47%
    16:00 +20°C° 0 mm 4 mps 749 mmHg 53%
    17:00 +19°C° 0 mm 4 mps 750 mmHg 58%
    18:00 +17°C° 0 mm 4 mps 750 mmHg 64%
    19:00 +16°C° 0 mm 3 mps 750 mmHg 66%
    20:00 +14°C° 0 mm 3 mps 751 mmHg 68%
    21:00 +13°C° 0 mm 2 mps 751 mmHg 70%
    22:00 +13°C° 0 mm 2 mps 751 mmHg 71%
    23:00 +12°C° 0 mm 2 mps 751 mmHg 72%

    11 April, Saturday

    Time Temperature Precipitation Wind Pressure Humidity
    00:00 +12°C° 0 mm 2 mps 751 mmHg 73%
    01:00 +12°C° 0 mm 2 mps 751 mmHg 73%
    02:00 +12°C° 0 mm 2 mps 750 mmHg 73%
    03:00 +10°C° 0 mm 2 mps 750 mmHg 73%
    04:00 +11°C° 0 mm 1 mps 750 mmHg 74%
    05:00 +11°C° 0 mm 1 mps 750 mmHg 75%
    06:00 +11°C° 0 mm 1 mps 750 mmHg 75%
    07:00 +13°C° 0 mm 2 mps 750 mmHg 68%
    08:00 +15°C° 0 mm 2 mps 751 mmHg 61%
    09:00 +17°C° 0 mm 2 mps 751 mmHg 54%
    10:00 +19°C° 0 mm 2 mps 750 mmHg 51%
    11:00 +20°C° 0 mm 3 mps 750 mmHg 48%
    12:00 +21°C° 0 mm 3 mps 750 mmHg 45%
    13:00 +21°C° 0 mm 3 mps 750 mmHg 46%
    14:00 +21°C° 0 mm 4 mps 749 mmHg 46%
    15:00 +21°C° 0 mm 4 mps 749 mmHg 47%
    16:00 +19°C° 0 mm 4 mps 749 mmHg 53%
    17:00 +18°C° 0 mm 4 mps 749 mmHg 58%
    18:00 +15°C° 0 mm 4 mps 748 mmHg 64%
    19:00 +14°C° 0 mm 4 mps 749 mmHg 65%
    20:00 +13°C° 0 mm 3 mps 749 mmHg 66%
    21:00 +12°C° 0 mm 3 mps 750 mmHg 67%
    22:00 +13°C° 0 mm 2 mps 750 mmHg 67%
    23:00 +13°C° 0 mm 2 mps 750 mmHg 68%

    12 April, Sunday

    Time Temperature Precipitation Wind Pressure Humidity
    00:00 +13°C° 0 mm 2 mps 750 mmHg 68%
    01:00 +12°C° 0 mm 2 mps 749 mmHg 69%
    02:00 +12°C° 0 mm 2 mps 749 mmHg 70%
    03:00 +12°C° 0 mm 2 mps 748 mmHg 72%
    04:00 +12°C° 0 mm 2 mps 748 mmHg 73%
    05:00 +12°C° 0 mm 1 mps 748 mmHg 74%
    06:00 +12°C° 0 mm 1 mps 748 mmHg 75%
    07:00 +13°C° 0 mm 2 mps 748 mmHg 72%
    08:00 +14°C° 0 mm 2 mps 748 mmHg 69%
    09:00 +15°C° 0 mm 2 mps 748 mmHg 66%
    10:00 +16°C° 0 mm 2 mps 748 mmHg 63%
    11:00 +17°C° 0 mm 2 mps 747 mmHg 59%
    12:00 +18°C° 0 mm 2 mps 747 mmHg 56%
    13:00 +18°C° 0 mm 2 mps 747 mmHg 56%
    14:00 +18°C° 0 mm 2 mps 746 mmHg 55%
    15:00 +19°C° 0 mm 3 mps 746 mmHg 55%
    16:00 +18°C° 0 mm 3 mps 746 mmHg 58%
    17:00 +17°C° 0 mm 3 mps 745 mmHg 61%
    18:00 +16°C° 0 mm 3 mps 745 mmHg 64%
    19:00 +14°C° 0 mm 3 mps 746 mmHg 66%
    20:00 +13°C° 0 mm 3 mps 746 mmHg 68%
    21:00 +12°C° 0 mm 2 mps 746 mmHg 69%
    22:00 +12°C° 0 mm 2 mps 746 mmHg 70%
    23:00 +12°C° 0 mm 2 mps 746 mmHg 70%

    13 April, Monday

    Time Temperature Precipitation Wind Pressure Humidity
    00:00 +10°C° 0 mm 2 mps 746 mmHg 70%
    01:00 +10°C° 0 mm 2 mps 746 mmHg 70%
    02:00 +10°C° 0 mm 2 mps 745 mmHg 70%
    03:00 +10°C° 0 mm 2 mps 745 mmHg 69%
    04:00 +10°C° 0 mm 2 mps 745 mmHg 72%
    05:00 +10°C° 0 mm 2 mps 745 mmHg 74%
    06:00 +10°C° 0 mm 2 mps 745 mmHg 76%
    07:00 +13°C° 0 mm 2 mps 746 mmHg 68%
    08:00 +15°C° 0 mm 2 mps 746 mmHg 59%
    09:00 +17°C° 0 mm 2 mps 746 mmHg 51%
    10:00 +18°C° 0 mm 2 mps 746 mmHg 48%
    11:00 +20°C° 0 mm 3 mps 746 mmHg 45%
    12:00 +21°C° 0 mm 3 mps 746 mmHg 43%
    13:00 +22°C° 0 mm 3 mps 745 mmHg 43%
    14:00 +22°C° 0 mm 3 mps 745 mmHg 44%
    15:00 +22°C° 0 mm 4 mps 745 mmHg 45%
    16:00 +20°C° 0 mm 4 mps 745 mmHg 51%
    17:00 +19°C° 0 mm 4 mps 745 mmHg 58%
    18:00 +17°C° 0 mm 4 mps 745 mmHg 64%
    19:00 +16°C° 0 mm 3 mps 746 mmHg 67%
    20:00 +15°C° 0 mm 2 mps 746 mmHg 71%
    21:00 +13°C° 0 mm 2 mps 747 mmHg 75%
    22:00 +13°C° 0 mm 2 mps 747 mmHg 76%
    23:00 +12°C° 0 mm 1 mps 747 mmHg 77%
    Show more